Location: Unspecified
(47.7670°N, 8.8522°E)
Time: 14:03:31
(UTC+01:00)

Tiangong - Pass Details

Date: 05 December 2022
Orbit: 383 x 386 km, 41.5° (Epoch: 30 January)

Event Time Altitude Azimuth Distance (km) Brightness Sun altitude
Rises 18:02:15 0° 248° (WSW) 2,252 3.7 -14.3°
Reaches altitude 10° 18:04:30 10° 235° (SW) 1,401 1.9 -14.7°
Maximum altitude 18:07:11 25° 177° (S) 810 -0.4 -15.1°
Enters shadow 18:08:44 18° 134° (SE) 1,044 -0.2 -15.3°
